Tacoma Narrows, WA
on Friday, December 14, 2012

Friday
Previous Day Next Day
Daily Summary
 ActualAverageRecord
Temperature
Mean Temperature °F °F  
Max Temperature 43°F 45°F 59°F (2002)
Min Temperature 35°F 37°F 24°F (2008)
Degree Days
Heating Degree Days 26    
Moisture
Dew Point 36°F   
Average Humidity 88    
Maximum Humidity 93    
Minimum Humidity 73    
Precipitation
Precipitation 0.23 in in in ()
Wind
Wind Speed 5 mph   
Max Wind Speed 8 mph   
Max Gust Speed mph   
Visibility 9 miles   
Events Rain   
Averages and records for this station are not official NWS values.
Key: T is trace of precipitation, MM is missing value
Source: NWS Daily Summary
Seasonal Weather Averages
Time(PST)TemperatureDew PointHumidity Pressure Visibility Wind DirectionWind SpeedGust SpeedPrecipitationEvents Conditions
12:47 AM 39.2°F 37.4°F 93% 29.80 in 10.0 miles South 5.8 mph - 0.04 in Rain Light Rain
12:53 AM 39.9°F 37.0°F 89% 29.81 in 10.0 miles South 6.9 mph - 0.04 in Rain Light Rain
1:06 AM 39.2°F 37.4°F 93% 29.80 in 10.0 miles South 6.9 mph - 0.01 in Rain Light Rain
1:22 AM 39.2°F 37.4°F 93% 29.79 in 10.0 miles South 6.9 mph - 0.02 in Rain Light Rain
1:53 AM 39.9°F 37.0°F 89% 29.80 in 9.0 miles South 8.1 mph - 0.04 in Rain Light Rain
2:53 AM 39.9°F 37.0°F 89% 29.79 in 10.0 miles South 8.1 mph - 0.02 in Rain Light Rain
3:24 AM 39.2°F 37.4°F 93% 29.78 in 7.0 miles SSW 5.8 mph - 0.03 in Rain Light Rain
3:36 AM 39.2°F 35.6°F 87% 29.78 in 5.0 miles SSW 8.1 mph - 0.05 in Rain Light Rain
3:43 AM 39.2°F 35.6°F 87% 29.78 in 8.0 miles SSW 5.8 mph - 0.05 in Rain Light Rain
3:53 AM 39.0°F 36.0°F 89% 29.79 in 7.0 miles SSW 8.1 mph - 0.06 in Rain Light Rain
4:30 AM 39.2°F 37.4°F 93% 29.78 in 5.0 miles Calm Calm - 0.03 in Rain Light Rain
4:51 AM 39.2°F 37.4°F 93% 29.78 in 4.0 miles SW 3.5 mph - 0.04 in Rain Light Rain
4:53 AM 39.0°F 37.0°F 93% 29.79 in 4.0 miles SW 3.5 mph - 0.04 in   Overcast
5:53 AM 39.0°F 36.0°F 89% 29.81 in 5.0 miles SW 4.6 mph - N/A   Overcast
6:53 AM 37.9°F 36.0°F 93% 29.82 in 10.0 miles Calm Calm - 0.01 in   Overcast
7:08 AM 37.4°F 35.6°F 93% 29.81 in 10.0 miles Calm Calm - N/A   Overcast
7:15 AM 37.4°F 35.6°F 93% 29.81 in 10.0 miles Calm Calm - N/A   Overcast
7:53 AM 37.9°F 36.0°F 93% 29.83 in 10.0 miles Calm Calm - N/A   Overcast
8:53 AM 39.9°F 37.0°F 89% 29.86 in 10.0 miles Calm Calm - 0.00 in   Overcast
9:29 AM 39.2°F 37.4°F 93% 29.86 in 10.0 miles Calm Calm - 0.01 in Rain Light Rain
9:53 AM 41.0°F 37.9°F 89% 29.88 in 10.0 miles Calm Calm - 0.01 in   Overcast
10:53 AM 41.0°F 37.0°F 86% 29.88 in 10.0 miles NNW 6.9 mph - N/A   Overcast
11:53 AM 42.1°F 37.0°F 82% 29.89 in 10.0 miles NW 5.8 mph - N/A   Mostly Cloudy
12:53 PM 43.0°F 35.1°F 74% 29.90 in 10.0 miles NNE 6.9 mph - N/A   Mostly Cloudy
1:53 PM 42.1°F 35.1°F 76% 29.91 in 10.0 miles NNE 4.6 mph - N/A   Overcast
2:53 PM 42.1°F 34.0°F 73% 29.93 in 10.0 miles Calm Calm - N/A   Overcast
3:50 PM 41.0°F 35.6°F 81% 29.93 in 10.0 miles WNW 5.8 mph - N/A   Overcast
3:53 PM 41.0°F 35.1°F 79% 29.94 in 10.0 miles WNW 5.8 mph - N/A   Overcast
4:53 PM 39.0°F 36.0°F 89% 29.96 in 10.0 miles Calm Calm - 0.00 in   Overcast
5:53 PM 39.9°F 34.0°F 79% 29.95 in 10.0 miles Calm Calm - 0.00 in   Overcast
6:53 PM 37.9°F 34.0°F 86% 29.95 in 10.0 miles Calm Calm - N/A   Mostly Cloudy
7:53 PM 37.9°F 34.0°F 86% 29.95 in 10.0 miles SSE 4.6 mph - N/A   Clear
8:53 PM 37.0°F 35.1°F 93% 29.96 in 9.0 miles South 4.6 mph - 0.01 in   Clear
9:22 PM 35.6°F 33.8°F 93% 29.95 in 6.0 miles South 5.8 mph - N/A   Scattered Clouds
9:53 PM 37.0°F 35.1°F 93% 29.96 in 8.0 miles South 5.8 mph - N/A   Partly Cloudy
10:17 PM 37.4°F 35.6°F 93% 29.94 in 8.0 miles SSE 3.5 mph - N/A   Mostly Cloudy
10:53 PM 37.0°F 35.1°F 93% 29.95 in 10.0 miles SSE 4.6 mph - N/A   Mostly Cloudy
11:18 PM 35.6°F 33.8°F 93% 29.93 in 9.0 miles ESE 4.6 mph - N/A   Scattered Clouds
11:53 PM 36.0°F 32.0°F 86% 29.94 in 10.0 miles Calm Calm - N/A   Clear
Moon Phase
Dec. 14 Dec. 20 Dec. 28 Jan. 04 Jan. 11
Sunrise:07:50 AM (PST) Moon Rise:08:55 AM (PST)12/14
Sunset:04:20 PM (PST) Moon Set:06:24 PM (PST)12/14

Copyright © 2014 The Weather Underground, Inc.